Weather Roundup
Issued by NWS Chicago, IL

Home | Current Version | Previous Version | Graphics & Text | Print | Product List | Glossary On
Versions: 1 2 3 4 5 6 7 8 9 10 11 12 13 14 15 16 17 18 19 20 21 22 23 24 25 26 27 28 29 30 31 32 33 34 35 36 37 38 39 40 41 42 43 44 45 46 47 48 49 50
000
NZUS59 KLOT 240608
HRRLOT

CHICAGO AREA WEATHER ROUNDUP
NATIONAL WEATHER SERVICE CHICAGO/ROMEOVILLE IL
100 AM CDT FRI MAR 24 2017

NOTE: "FAIR" INDICATES FEW OR NO CLOUDS BELOW 12,000 FEET WITH NO
SIGNIFICANT WEATHER AND/OR OBSTRUCTIONS TO VISIBILITY.

* THESE STATIONS ARE NOT UNDER NWS QUALITY CONTROL. THEY ALSO MAY NOT
  REPORT WEATHER SUCH AS PRECIPITATION OR FOG.

ILZ005-006-012>014-019>023-240700-
NORTHEAST ILLINOIS

CITY           SKY/WX    TMP DP  RH WIND       PRES   REMARKS
OHARE          CLOUDY    44  33  65 S8        29.98F
6HR MIN TEMP:  44; 6HR MAX TEMP:  50; 6HR PCP:  0.02;

MIDWAY         CLOUDY    48  33  56 S9        30.00F
6HR MIN TEMP:  48; 6HR MAX TEMP:  51; 6HR PCP: TRACE;

AURORA         CLOUDY    45  34  65 SE12      29.96F
6HR MIN TEMP:  45; 6HR MAX TEMP:  48; 6HR PCP: TRACE;

LANSING*       PTCLDY    45  36  69 CALM      30.02R
JOLIET*        CLOUDY    49  37  63 S9        29.99F
WAUKEGAN       CLOUDY    46  34  62 S17       29.94F
6HR MIN TEMP:  39; 6HR MAX TEMP:  46; 6HR PCP:  0.03;

DUPAGE AIRPORT CLOUDY    45  34  65 S10       29.97F
6HR MIN TEMP:  42; 6HR MAX TEMP:  48; 6HR PCP:  0.01;

WHEELING       PTCLDY    45  34  65 S9        29.99F
6HR MIN TEMP:  43; 6HR MAX TEMP:  49; 6HR PCP:  0.02;

KANKAKEE*      CLOUDY    46  36  66 S12       30.00F
MORRIS*        MOCLDY    44  35  70 CALM      29.97F
LEWIS AIRPORT* CLOUDY    46  38  76 S12       29.99F
NORTHERLY ISL    N/A     48  30  50 S7          N/A
$$

WIZ051-052-058>065-066-070>072-240700-
SOUTHEAST WISCONSIN

CITY           SKY/WX    TMP DP  RH WIND       PRES   REMARKS
MILWAUKEE      CLOUDY    43  33  68 S13       29.90F
6HR MIN TEMP:  40; 6HR MAX TEMP:  45; 6HR PCP:  0.16;

KENOSHA*       CLOUDY    42  33  70 S13       29.93F
RACINE*        PTCLDY    41  33  73 S14G23    29.93F
WAUKESHA       PTCLDY    41  32  70 S13G18    29.90F
WEST BEND      CLOUDY    45  34  65 W6        29.92R
$$

INZ001>003-010>013-019-020-240700-
NORTHWEST INDIANA

CITY           SKY/WX    TMP DP  RH WIND       PRES   REMARKS
GARY*          PTCLDY    50  30  45 S3        30.03R
6HR MIN TEMP:  47; 6HR MAX TEMP:  51; 6HR PCP:  0.01;

MICHIGAN CITY* NOT AVBL
RENSSELAER*    NOT AVBL
VALPARAISO     CLOUDY    48  35  60 S3        30.04R
$$

LMZ740>746-240700-
SOUTHERN LAKE MICHIGAN

STATION/POSITION TIME  SKY/WX   TEMP WIND        PRES    VSBY
                                AIR  DIR/SP/G
                 (UTC)          (F)  (DEG/KT/KT) (MB)    (MI)
HARRISON CRIB    0540            48  160/ 11/ 12   N/A
BURNHAM HARBOR   0600            48  170/  5/  9   N/A
CALUMET HARBOR   0548                140/  3/  4 1015.7S
BURNS HARBOR     0540            50  200/  8/ 15 1017.6R
MICHIGAN CITY    0540            49  170/  7/  8   N/A
$$

ABBREVIATIONS USED IN REMARKS
   TC - TEMPERATURE IN CELSIUS
  WCI - WIND CHILL INDEX
   HX - HEAT INDEX
  VSB - VISIBILITY
$$




USA.gov is the U.S. government's official web portal to all federal, state and local government web resources and services.